EHI
2 2 1 0 0 0 0 0 0 0 0 0 0 0 0 0 0 0 0 0 0 0 1 2 3 3 3 1 0 0 0 0 0 0 0 0 0 0 0 0 0 1 2 2 1 0 0 0 0
1 1 0 0 0 0 0 0 0 0 0 0 0 0 0 0 0 0 0 0 0 0 0 1 2 3 3 2 1 1 0 0 0 0 0 0 0 0 0 0 0 0 1 1 0 0 0 0 0
0 0 0 0 0 0 0 0 0 0 0 0 0 0 0 0 0 0 0 0 0 0 0 0 2 3 3 3 3 2 1 0 0 0 0 0 0 0 0 0 0 0 0 0 0 0 0 0 0
0 0 0 0 0 0 0 0 0 0 0 0 0 0 0 0 0 0 0 0 0 0 0 1 2 3 3 2 2 2 1 0 0 0 0 0 0 0 0 0 0 0 0 0 0 0 0 0 0
0 0 0 0 0 0 0 0 0 0 0 0 0 0 0 0 0 0 0 0 0 0 0 1 2 3 1 1 1 1 0 0 0 0 0 0 0 0 0 0 0 0 0 0 0 0 0 0 0
0 0 0 0 0 0 0 0 0 0 0 0 0 0 0 0 0 0 0 0 0 0 0 1 2 2 1 0 0 0 0 0 0 0 0 0 0 0 0 0 0 0 0 0 0 0 0 0 0
0 0 0 0 0 0 0 0 0 0 0 0 0 0 0 0 1 1 1 0 0 0 0 0 1 1 0 0 0 0 0 0 0 0 0 0 0 0 0 0 0 0 0 0 0 0 0 0 0
0 0 0 0 0 0 0 0 0 0 0 0 0 0 1 2 2 2 2 1 0 0 0 0 0 0 0 0 0 0 0 0 0 0 0 0 0 0 0 0 0 0 0 0 1 1 1 0 0
0 0 0 0 0 0 0 0 0 0 0 0 0 0 2 3 3 3 2 1 0 0 0 0 0 0 0 0 0 0 0 0 0 0 0 0 0 0 0 0 0 0 0 0 1 2 1 1 1
0 0 0 0 0 0 0 0 0 0 0 0 0 0 1 2 2 1 1 0 0 0 0 0 0 0 0 0 0 0 0 0 0 0 0 0 1 1 0 0 0 0 0 0 1 1 1 1 1
0 0 0 0 0 0 0 0 0 0 0 0 0 0 0 1 1 0 0 0 0 0 0 0 0 0 0 0 0 0 0 0 0 0 0 0 1 2 1 0 0 0 0 0 0 0 0 0 1
0 0 0 0 0 0 0 0 0 0 0 0 0 0 0 0 0 0 0 0 0 0 0 0 0 0 0 0 0 0 0 0 0 0 0 0 1 1 1 0 0 0 0 0 0 0 0 0 0
0 0 0 0 0 0 0 0 0 0 0 0 0 0 0 0 0 0 0 0 0 0 0 0 0 0 0 0 0 0 0 0 0 0 0 0 0 0 0 0 0 0 0 0 0 0 0 1 1
0 0 0 0 0 0 0 0 0 0 0 0 0 0 0 0 0 0 0 0 0 0 0 0 0 0 0 0 0 0 0 0 0 0 0 0 0 0 0 1 1 1 0 0 0 0 0 1 2
0 0 0 0 0 0 0 0 0 0 0 0 0 0 0 0 0 0 0 0 0 0 0 0 0 0 0 0 0 0 0 0 0 0 0 0 0 0 0 1 1 1 0 0 0 0 0 1 1
0 0 0 0 0 0 0 0 0 0 0 0 0 0 0 0 0 0 0 0 0 0 0 0 0 0 0 0 0 0 0 0 0 0 0 0 0 0 0 0 0 0 0 0 0 0 0 0 0
0 0 0 0 0 0 0 0 0 0 0 0 0 0 0 0 0 0 0 0 0 0 0 0 0 0 0 0 0 0 0 0 0 0 0 0 0 0 0 0 0 0 0 0 0 0 0 0 0
0 0 0 0 0 0 0 0 0 0 0 0 0 0 0 0 0 0 0 0 0 0 0 0 0 0 1 1 1 0 0 0 0 0 0 0 0 0 0 0 0 0 0 0 0 0 0 0 0
0 0 0 0 0 0 0 0 0 0 0 0 0 0 0 0 0 0 0 0 0 0 0 0 0 1 2 2 1 0 0 0 0 0 0 0 0 0 0 0 0 0 0 0 0 0 0 0 0
0 0 0 0 0 0 0 0 0 0 0 0 0 0 0 0 0 0 0 0 0 1 0 0 0 1 2 2 1 0 0 0 0 0 0 0 0 0 0 0 0 0 0 0 0 0 0 0 0
0 0 0 0 0 0 0 0 0 0 0 0 0 0 0 0 0 0 0 0 0 0 0 0 0 0 1 1 1 1 0 0 0 0 0 0 0 0 0 0 0 0 0 0 0 0 0 0 0
0 0 0 0 0 0 0 0 0 0 0 0 0 0 0 0 0 0 0 0 0 0 0 0 0 0 1 2 2 2 1 0 0 0 0 0 0 0 0 0 0 0 0 0 0 0 0 0 0
0 0 0 0 0 0 0 0 0 0 0 0 0 0 0 0 0 0 0 0 0 0 0 0 0 1 2 3 3 2 1 0 0 0 0 0 0 0 0 0 0 0 0 0 0 0 0 0 0
0 0 0 0 0 0 0 0 0 0 0 0 0 0 0 0 0 0 0 0 0 0 0 0 0 1 2 3 1 1 0 0 0 0 0 0 0 0 0 0 0 0 0 0 0 0 0 0 0
0 0 0 0 0 0 0 0 0 0 0 0 0 0 0 0 0 0 0 0 0 0 0 0 0 1 2 2 1 0 0 0 0 0 0 0 0 0 0 0 0 0 0 0 0 0 0 0 0
0 0 0 0 0 0 0 0 0 0 0 0 0 0 0 0 0 0 0 0 0 0 0 0 0 1 2 2 1 0 0 0 0 0 0 0 0 0 0 0 0 0 0 0 0 0 0 0 0
0 0 0 0 0 0 0 0 0 0 0 0 0 0 0 0 0 0 0 0 0 0 0 0 1 1 1 1 0 0 0 0 0 0 0 0 0 0 0 0 0 0 0 0 0 0 0 0 0
0 0 0 0 0 0 0 0 0 0 0 0 0 0 0 0 0 0 0 0 0 0 0 0 0 1 1 1 0 0 1 1 0 0 0 0 0 0 0 0 0 0 0 0 0 0 0 0 0
0 0 0 0 0 0 0 0 0 0 0 0 0 0 0 0 0 0 0 0 0 0 0 0 0 0 0 1 1 1 2 2 1 0 0 0 0 0 0 0 0 0 0 0 0 0 0 0 0
0 0 0 0 0 0 0 0 0 0 0 0 0 0 0 0 0 0 0 0 0 0 0 0 0 0 0 0 1 2 3 2 1 0 0 0 0 0 0 0 0 0 0 0 0 0 0 0 0
Wind_Speed
4 2 2 3 3 3 7 6 5 5 5 6 6 5 6 7 6 6 5 3 3 3 4 5 4 4 5 6 6 7 7 7 7 7 7 7 6 6 7 6 7 7 7 7 7 7 7 8 8
1 1 3 2 1 5 7 5 6 6 6 5 5 5 6 7 6 6 5 3 3 4 4 5 5 4 5 6 6 6 7 7 7 7 7 7 7 7 6 7 7 7 7 7 7 7 8 8 8
2 2 2 0 4 5 7 6 6 7 5 2 4 5 5 6 5 4 4 3 3 4 4 6 4 4 5 5 6 6 6 7 7 7 7 7 7 7 7 7 7 7 7 7 7 8 7 7 8
2 2 1 3 9 7 6 6 5 6 4 4 3 6 6 5 4 5 5 4 4 4 4 6 4 4 4 4 5 5 5 6 6 6 6 6 6 7 7 7 7 7 7 7 8 8 8 8 8
2 1 3 6 8 6 5 5 4 4 4 4 4 6 7 5 5 5 5 4 4 4 4 5 4 3 4 4 4 5 5 5 5 5 5 5 6 6 7 7 7 7 7 7 7 8 8 8 8
1 1 3 6 7 6 5 4 3 5 5 5 4 5 6 5 5 5 4 4 4 4 3 5 5 3 3 4 4 4 4 5 5 5 5 5 5 6 6 6 7 7 7 7 8 8 8 9 9
1 1 4 6 6 5 4 3 3 4 4 4 2 4 6 6 5 4 4 4 4 3 3 3 3 3 3 3 3 3 4 4 5 5 5 5 6 6 7 7 7 7 8 8 9 9 9 9 9
1 1 4 4 4 5 4 3 2 2 4 4 1 2 5 6 6 5 4 4 4 3 3 2 2 2 2 3 4 3 3 4 4 5 5 5 5 7 6 7 8 8 9 9 9 9 10 10 9
2 2 3 3 3 4 5 4 4 3 4 4 3 4 6 7 6 5 4 4 4 3 3 2 2 1 1 2 4 3 3 3 2 4 4 2 3 5 5 9 9 9 9 10 10 10 9 8 10
2 1 4 2 2 4 5 3 4 4 4 4 5 5 6 7 6 4 3 3 3 3 3 3 2 2 2 2 2 1 2 2 1 2 3 2 4 4 5 9 9 9 9 10 9 8 6 3 5
1 2 4 3 3 3 4 3 2 3 2 2 4 6 7 7 5 4 3 3 3 3 3 3 3 3 3 2 1 1 1 1 2 2 3 3 3 3 3 4 5 5 5 5 6 4 4 5 5
2 2 2 3 3 3 3 3 2 1 1 2 3 6 7 7 5 3 3 3 3 3 3 3 3 3 3 2 2 1 1 1 2 2 3 2 2 3 3 3 3 3 3 3 3 3 6 6 6
3 3 2 3 3 3 3 3 2 1 1 3 4 6 6 6 5 4 3 3 3 3 3 3 3 3 3 2 1 1 2 2 2 2 2 2 2 3 3 3 3 3 3 3 3 4 6 6 6
3 3 2 2 3 3 3 2 2 2 3 5 5 6 6 5 4 3 3 2 2 2 2 3 2 2 2 2 2 2 2 2 2 2 2 2 2 2 3 3 3 3 3 3 3 5 5 4 5
4 3 3 3 3 3 3 3 3 2 4 5 5 5 5 5 4 3 3 2 2 2 2 3 1 1 1 2 3 2 2 2 2 2 2 2 3 3 3 3 3 3 4 4 4 5 4 4 5
4 5 4 3 3 3 6 4 1 3 5 5 5 5 5 4 4 3 2 2 2 2 2 3 2 1 2 2 2 2 2 2 2 2 1 2 2 3 3 3 3 3 3 3 3 3 4 4 4
6 5 4 3 3 4 6 4 1 2 5 5 4 4 5 5 4 3 3 2 2 2 2 2 2 2 2 2 2 2 2 3 2 2 1 1 2 3 3 3 3 3 3 3 3 3 3 4 4
5 5 4 4 2 5 6 5 3 2 4 4 4 4 5 5 4 4 3 2 2 2 2 2 2 2 2 2 2 2 2 2 2 2 2 2 2 3 3 3 3 3 3 2 3 4 3 3 3
5 6 5 4 1 4 6 5 4 2 4 5 4 5 5 5 4 4 3 3 3 2 2 2 2 2 2 1 1 2 2 2 2 2 3 2 2 2 3 2 3 3 3 3 4 4 4 3 3
7 7 6 3 1 4 5 5 4 3 4 4 4 4 5 5 5 4 4 4 3 3 2 2 2 2 2 1 1 1 2 2 2 1 2 2 2 2 2 3 3 3 3 4 4 4 2 3 2
7 8 6 5 3 5 6 6 5 3 3 2 3 3 4 4 5 5 4 4 4 3 3 2 3 3 2 2 1 2 2 1 2 1 1 2 2 1 2 2 3 3 2 3 4 4 4 3 2
6 4 5 5 7 4 5 6 3 3 3 2 3 3 3 3 4 4 4 4 4 3 3 3 3 2 2 2 2 2 1 1 1 1 1 2 1 1 1 2 2 3 2 3 4 4 3 3 2
3 1 4 6 7 7 6 8 2 3 3 2 2 3 3 3 3 4 4 4 3 3 3 2 3 2 2 2 2 2 1 1 1 1 2 2 2 1 1 1 2 3 2 3 3 3 3 3 3
3 4 4 5 7 8 5 7 3 1 3 2 1 2 3 4 4 4 4 3 3 3 3 3 3 3 2 2 2 2 2 2 2 2 2 2 2 1 1 1 2 2 3 3 3 3 3 3 3
6 6 5 6 6 4 1 5 2 2 2 2 1 1 3 4 4 4 3 3 3 3 3 3 4 3 3 3 3 3 2 2 2 2 2 2 1 1 1 2 2 2 2 3 3 3 3 4 4
5 7 6 4 4 1 3 5 2 3 2 1 1 1 3 4 3 3 3 3 3 3 3 3 4 3 4 4 3 3 3 2 2 2 2 2 1 1 2 2 2 2 2 2 3 3 3 3 4
5 5 5 7 6 6 4 2 2 2 2 3 2 3 3 3 3 3 2 2 2 2 2 3 3 3 3 4 3 3 3 3 3 3 2 2 2 2 2 3 3 2 2 3 3 3 3 3 3
3 2 4 6 6 6 4 4 2 2 1 2 2 2 2 2 2 2 2 2 1 2 2 2 2 2 2 3 3 2 3 3 3 3 3 3 3 2 3 4 4 3 3 3 3 3 3 4 3
3 4 5 5 6 6 5 1 2 1 1 1 1 1 1 1 2 1 1 1 1 1 2 2 1 1 1 2 2 3 3 3 3 3 3 4 3 4 4 4 4 4 4 4 3 3 3 4 4
4 4 5 6 5 6 6 1 3 2 2 1 1 1 1 1 1 1 1 1 1 1 1 1 1 1 2 2 2 2 2 2 3 3 4 4 4 4 4 4 4 4 4 4 4 4 4 4 4
Wind_Direction
191 203 231 240 212 101 79 76 78 84 73 63 57 58 61 47 30 63 81 78 64 96 101 112 88 76 73 75 73 75 76 80 82 80 81 82 83 85 86 87 88 86 86 82 79 77 79 76 76
196 212 239 242 189 103 86 82 83 74 86 96 77 69 74 70 55 81 95 84 77 90 95 89 89 82 78 79 77 73 74 76 77 79 81 82 85 86 86 88 87 87 86 83 79 77 80 80 79
189 250 278 75 66 70 88 86 90 96 92 87 86 64 57 72 78 84 85 103 96 89 89 89 88 86 84 81 78 75 73 74 71 72 76 78 81 85 84 86 87 88 86 83 81 80 80 81 81
232 218 206 95 87 71 82 95 106 120 102 72 90 91 83 66 66 82 103 110 102 96 92 89 86 87 86 83 78 75 74 75 72 70 72 73 76 79 82 83 85 86 86 84 81 79 78 79 81
243 243 124 103 90 87 86 84 101 108 96 86 90 97 96 81 83 96 105 100 92 87 87 96 86 83 85 82 75 70 69 70 70 71 75 75 74 79 80 80 82 86 86 84 81 78 79 78 80
223 216 128 106 103 102 101 101 111 99 97 98 101 103 97 105 107 102 99 95 89 83 85 99 102 78 75 75 68 67 68 67 66 67 71 74 76 78 79 79 80 85 86 85 81 80 81 80 80
285 98 100 109 117 118 104 106 104 101 101 90 94 103 112 121 112 116 108 99 89 85 90 95 105 122 128 104 73 66 68 66 71 68 73 79 81 83 83 83 83 85 89 88 85 83 80 80 80
308 148 123 116 127 113 121 124 96 89 90 89 98 99 112 128 134 130 116 108 98 88 81 82 81 76 99 118 107 82 75 73 78 77 75 86 106 103 96 94 87 87 89 89 87 85 82 80 79
250 188 114 117 136 120 141 145 116 102 115 112 92 69 86 126 144 141 129 115 101 88 81 79 76 80 71 74 104 125 127 111 127 116 113 150 105 96 101 81 88 89 89 88 87 86 87 93 91
238 121 88 98 133 126 142 144 137 152 140 134 129 118 120 141 152 147 127 105 92 80 68 63 67 79 81 76 96 104 103 106 97 87 96 83 79 80 87 95 93 94 97 97 91 98 115 118 98
115 86 104 122 134 135 146 139 146 173 144 151 149 142 146 152 153 142 120 92 76 72 75 65 56 63 72 93 76 68 73 86 93 86 98 96 94 102 100 106 115 110 115 104 110 122 86 84 75
122 103 118 123 138 159 160 148 149 211 71 99 130 139 151 160 157 147 123 94 93 83 75 67 50 55 58 73 80 81 87 89 88 90 87 96 92 90 94 96 92 92 88 88 90 84 86 82 84
144 125 121 132 146 166 157 172 183 236 187 133 138 146 155 161 158 147 128 111 101 91 86 77 54 49 56 68 66 84 75 76 93 82 79 98 101 100 106 102 98 92 92 98 92 88 84 77 72
116 141 152 161 169 179 181 199 211 233 165 159 162 166 168 169 166 155 147 131 116 109 97 95 78 67 66 90 84 81 78 88 81 90 89 106 110 116 115 105 102 96 92 87 96 91 85 80 72
150 169 181 192 194 191 210 224 222 212 180 177 175 173 171 171 171 173 165 162 132 115 107 97 86 88 68 74 79 82 91 79 84 90 94 104 113 130 120 109 110 110 109 107 99 94 89 87 84
195 215 213 178 201 198 230 242 152 174 193 196 189 176 174 174 181 177 167 157 134 126 112 103 102 91 84 82 93 89 90 83 76 78 89 101 123 127 118 118 116 117 113 108 107 105 101 97 88
213 231 235 198 200 207 228 254 225 185 205 205 200 189 180 175 181 175 159 158 142 133 123 120 103 98 96 95 101 91 96 90 82 77 67 91 109 120 124 120 121 123 120 117 121 113 110 104 96
230 242 247 248 190 216 229 245 244 192 212 219 208 204 188 185 184 173 160 157 145 139 136 119 106 98 104 114 112 107 98 89 79 74 74 83 105 114 113 129 136 136 133 128 125 120 116 108 108
269 260 264 277 267 242 245 251 256 222 215 223 214 207 197 191 171 159 164 165 157 147 148 126 127 118 114 122 123 108 102 97 83 69 72 88 109 117 120 132 140 151 152 153 145 139 136 133 131
243 251 258 260 243 253 260 263 261 248 232 237 234 214 201 189 168 163 169 173 163 151 158 146 131 125 120 108 107 109 114 106 90 84 95 104 113 122 137 159 154 158 159 163 161 160 156 147 178
240 254 263 272 260 241 264 249 224 207 210 218 234 231 210 197 179 169 171 171 165 159 164 158 143 139 136 130 107 102 112 118 117 100 91 101 111 124 157 171 167 171 178 176 183 184 181 174 177
248 263 257 251 250 251 251 275 216 207 205 211 214 205 201 193 186 174 172 169 171 163 163 165 153 151 137 134 134 140 141 130 116 123 119 117 112 129 152 162 172 179 191 192 197 197 199 192 178
279 248 239 250 261 262 237 262 223 193 236 246 209 189 197 188 178 172 172 174 167 156 160 169 156 156 146 150 150 179 157 146 141 148 138 131 115 112 134 146 183 192 195 210 212 203 213 209 208
172 194 209 230 248 252 245 255 263 199 272 282 196 170 183 176 166 163 160 163 156 152 156 167 169 167 162 178 184 200 178 166 163 167 160 157 138 137 140 173 202 206 203 212 220 219 220 224 221
214 232 234 221 220 239 174 249 284 30 328 289 278 178 165 162 161 155 149 157 156 158 160 169 178 181 184 196 208 211 211 197 190 193 194 199 181 179 178 191 209 222 224 221 214 219 218 219 218
227 247 264 277 269 254 210 244 74 52 48 71 104 120 141 146 151 154 155 162 164 162 165 175 185 188 193 205 214 220 216 223 212 211 209 217 227 225 216 219 218 216 219 223 214 218 212 217 216
227 235 285 281 276 269 231 202 154 99 102 92 93 105 121 137 146 153 156 163 162 165 170 177 185 189 195 208 216 223 223 224 224 225 228 227 231 238 222 221 227 216 214 219 215 225 219 220 220
296 251 232 246 261 258 237 235 224 163 123 97 88 98 115 136 141 136 134 155 152 155 166 174 185 203 212 216 224 227 227 227 229 230 227 233 232 232 235 226 224 211 215 217 221 228 229 224 212
201 214 240 253 265 272 265 192 57 146 161 143 98 96 112 141 163 158 147 119 139 147 160 174 189 209 234 243 234 229 228 232 229 231 233 237 235 227 228 237 242 231 223 214 211 226 220 228 216
263 250 244 255 254 265 278 271 85 110 125 133 108 99 114 136 159 169 158 127 109 181 186 201 222 238 247 252 249 242 237 234 237 236 237 241 240 236 233 235 237 233 230 225 219 219 222 229 230